• In France
  • List of Countries
  • For 7 days
  • Water Temperature
  • Satellite Maps
  • Weather Map
  • Weather Widgets
  • user-avatar
    Login

    Hourly Weather Niamey

    Today, 24 September, Monday

    Time Temperature Precipitation Wind Pressure Humidity
    00:00 +35°C° 0 mm 3 mps 741 mmHg 46%
    01:00 +34°C° 0 mm 3 mps 740 mmHg 47%
    02:00 +33°C° 0 mm 3 mps 740 mmHg 49%
    03:00 +33°C° 0 mm 3 mps 739 mmHg 51%
    04:00 +31°C° 0 mm 3 mps 740 mmHg 52%
    05:00 +31°C° 0 mm 3 mps 740 mmHg 54%
    06:00 +32°C° 0 mm 4 mps 740 mmHg 55%
    07:00 +33°C° 0 mm 4 mps 740 mmHg 51%
    08:00 +35°C° 0 mm 4 mps 741 mmHg 47%
    09:00 +36°C° 0 mm 4 mps 741 mmHg 43%
    10:00 +38°C° 0 mm 3 mps 741 mmHg 38%
    11:00 +39°C° 0 mm 2 mps 741 mmHg 33%
    12:00 +40°C° 0 mm 1 mps 741 mmHg 32%
    13:00 +41°C° 0 mm 1 mps 740 mmHg 29%
    14:00 +41°C° 0 mm 2 mps 739 mmHg 25%
    15:00 +42°C° 0 mm 2 mps 739 mmHg 22%
    16:00 +42°C° 0 mm 2 mps 739 mmHg 22%
    17:00 +41°C° 0 mm 2 mps 739 mmHg 22%
    18:00 +41°C° 0 mm 2 mps 739 mmHg 23%
    19:00 +40°C° 0 mm 2 mps 739 mmHg 24%
    20:00 +39°C° 0 mm 3 mps 739 mmHg 26%
    21:00 +38°C° 0 mm 3 mps 740 mmHg 27%
    22:00 +38°C° 0 mm 3 mps 740 mmHg 30%
    23:00 +37°C° 0 mm 3 mps 740 mmHg 33%

    Tomorrow, 25 September, Tuesday

    Time Temperature Precipitation Wind Pressure Humidity
    00:00 +36°C° 0 mm 4 mps 740 mmHg 35%
    01:00 +35°C° 0 mm 4 mps 739 mmHg 40%
    02:00 +35°C° 0 mm 4 mps 739 mmHg 44%
    03:00 +34°C° 0 mm 4 mps 739 mmHg 48%
    04:00 +33°C° 0 mm 4 mps 739 mmHg 51%
    05:00 +33°C° 0 mm 4 mps 739 mmHg 53%
    06:00 +32°C° 0 mm 4 mps 739 mmHg 56%
    07:00 +34°C° 0 mm 4 mps 740 mmHg 51%
    08:00 +36°C° 0 mm 4 mps 741 mmHg 46%
    09:00 +37°C° 0 mm 5 mps 741 mmHg 42%
    10:00 +39°C° 0 mm 3 mps 741 mmHg 37%
    11:00 +40°C° 0 mm 2 mps 740 mmHg 32%
    12:00 +41°C° 0 mm 1 mps 740 mmHg 27%
    13:00 +42°C° 0 mm 2 mps 739 mmHg 24%
    14:00 +44°C° 0 mm 3 mps 738 mmHg 21%
    15:00 +45°C° 0 mm 4 mps 737 mmHg 18%
    16:00 +44°C° 0 mm 4 mps 737 mmHg 19%
    17:00 +43°C° 0 mm 3 mps 737 mmHg 20%
    18:00 +42°C° 0 mm 3 mps 737 mmHg 22%
    19:00 +40°C° 0 mm 3 mps 738 mmHg 24%
    20:00 +39°C° 0 mm 3 mps 739 mmHg 26%
    21:00 +38°C° 0 mm 3 mps 739 mmHg 28%
    22:00 +37°C° 0 mm 4 mps 739 mmHg 33%
    23:00 +36°C° 0 mm 4 mps 739 mmHg 37%

    Day after tomorrow, 26 September, Wednesday

    Time Temperature Precipitation Wind Pressure Humidity
    00:00 +36°C° 0 mm 4 mps 739 mmHg 42%
    01:00 +35°C° 0 mm 5 mps 739 mmHg 47%
    02:00 +34°C° 0 mm 6 mps 739 mmHg 53%
    03:00 +33°C° 0 mm 7 mps 739 mmHg 59%
    04:00 +32°C° 0 mm 6 mps 739 mmHg 60%
    05:00 +32°C° 0 mm 6 mps 739 mmHg 61%
    06:00 +30°C° 0 mm 5 mps 740 mmHg 63%
    07:00 +33°C° 0 mm 5 mps 740 mmHg 55%
    08:00 +35°C° 0 mm 5 mps 741 mmHg 48%
    09:00 +36°C° 0 mm 5 mps 741 mmHg 41%
    10:00 +38°C° 0 mm 4 mps 741 mmHg 37%
    11:00 +40°C° 0 mm 4 mps 740 mmHg 33%
    12:00 +40°C° 0 mm 3 mps 740 mmHg 30%
    13:00 +42°C° 0 mm 3 mps 739 mmHg 27%
    14:00 +42°C° 0 mm 2 mps 738 mmHg 25%
    15:00 +42°C° 0 mm 2 mps 738 mmHg 23%
    16:00 +42°C° 0 mm 2 mps 738 mmHg 23%
    17:00 +41°C° 0 mm 2 mps 738 mmHg 24%
    18:00 +40°C° 0 mm 2 mps 738 mmHg 24%
    19:00 +39°C° 0 mm 3 mps 739 mmHg 27%
    20:00 +39°C° 0 mm 3 mps 739 mmHg 30%
    21:00 +38°C° 0 mm 4 mps 740 mmHg 32%
    22:00 +37°C° 0 mm 5 mps 740 mmHg 38%
    23:00 +36°C° 0 mm 6 mps 739 mmHg 44%

    27 September, Thursday

    Time Temperature Precipitation Wind Pressure Humidity
    00:00 +35°C° 0 mm 6 mps 739 mmHg 49%
    01:00 +34°C° 0.1 mm 6 mps 739 mmHg 51%
    02:00 +34°C° 0.1 mm 6 mps 739 mmHg 54%
    03:00 +33°C° 0.1 mm 6 mps 739 mmHg 56%
    04:00 +33°C° 0 mm 6 mps 739 mmHg 58%
    05:00 +32°C° 0 mm 6 mps 739 mmHg 61%
    06:00 +32°C° 0 mm 5 mps 739 mmHg 63%
    07:00 +33°C° 0 mm 6 mps 740 mmHg 58%
    08:00 +35°C° 0 mm 6 mps 740 mmHg 52%
    09:00 +38°C° 0 mm 6 mps 741 mmHg 47%
    10:00 +39°C° 0 mm 5 mps 740 mmHg 41%
    11:00 +41°C° 0 mm 4 mps 740 mmHg 35%
    12:00 +43°C° 0 mm 4 mps 739 mmHg 30%
    13:00 +43°C° 0 mm 3 mps 738 mmHg 26%
    14:00 +43°C° 0 mm 2 mps 737 mmHg 23%
    15:00 +44°C° 0 mm 1 mps 737 mmHg 20%
    16:00 +43°C° 0 mm 1 mps 737 mmHg 21%
    17:00 +42°C° 0 mm 1 mps 737 mmHg 22%
    18:00 +41°C° 0 mm 1 mps 737 mmHg 23%
    19:00 +40°C° 0.2 mm 2 mps 738 mmHg 26%
    20:00 +40°C° 0.2 mm 2 mps 738 mmHg 29%
    21:00 +39°C° 0.2 mm 3 mps 738 mmHg 33%
    22:00 +37°C° 1 mm 5 mps 739 mmHg 41%
    23:00 +35°C° 1 mm 7 mps 739 mmHg 48%

    28 September, Friday

    Time Temperature Precipitation Wind Pressure Humidity
    00:00 +33°C° 1 mm 9 mps 739 mmHg 56%
    01:00 +33°C° 0 mm 7 mps 739 mmHg 56%
    02:00 +33°C° 0 mm 6 mps 739 mmHg 56%
    03:00 +32°C° 0 mm 4 mps 739 mmHg 56%
    04:00 +32°C° 0 mm 4 mps 739 mmHg 56%
    05:00 +32°C° 0 mm 5 mps 739 mmHg 55%
    06:00 +32°C° 0 mm 5 mps 739 mmHg 55%
    07:00 +33°C° 0 mm 5 mps 740 mmHg 51%
    08:00 +34°C° 0 mm 5 mps 740 mmHg 47%
    09:00 +35°C° 0 mm 6 mps 741 mmHg 43%
    10:00 +37°C° 0 mm 5 mps 740 mmHg 39%
    11:00 +39°C° 0 mm 5 mps 740 mmHg 35%
    12:00 +41°C° 0 mm 5 mps 739 mmHg 31%
    13:00 +41°C° 0 mm 4 mps 739 mmHg 29%
    14:00 +41°C° 0 mm 4 mps 738 mmHg 28%
    15:00 +42°C° 0 mm 3 mps 738 mmHg 27%
    16:00 +40°C° 0 mm 3 mps 738 mmHg 28%
    17:00 +40°C° 0 mm 3 mps 738 mmHg 29%
    18:00 +39°C° 0 mm 3 mps 738 mmHg 31%
    19:00 +38°C° 0.1 mm 4 mps 739 mmHg 33%
    20:00 +37°C° 0.1 mm 4 mps 739 mmHg 35%
    21:00 +37°C° 0.1 mm 4 mps 740 mmHg 37%
    22:00 +36°C° 0.1 mm 4 mps 740 mmHg 40%
    23:00 +35°C° 0.1 mm 5 mps 740 mmHg 42%

    29 September, Saturday

    Time Temperature Precipitation Wind Pressure Humidity
    00:00 +35°C° 0.1 mm 5 mps 739 mmHg 45%
    01:00 +34°C° 0.1 mm 4 mps 739 mmHg 47%
    02:00 +34°C° 0.1 mm 4 mps 739 mmHg 49%
    03:00 +33°C° 0.1 mm 3 mps 739 mmHg 51%
    04:00 +33°C° 0 mm 4 mps 739 mmHg 54%
    05:00 +33°C° 0 mm 4 mps 740 mmHg 57%
    06:00 +32°C° 0 mm 4 mps 740 mmHg 60%
    07:00 +34°C° 0 mm 5 mps 740 mmHg 56%
    08:00 +35°C° 0 mm 5 mps 741 mmHg 51%
    09:00 +36°C° 0 mm 5 mps 741 mmHg 47%
    10:00 +37°C° 0 mm 4 mps 740 mmHg 42%
    11:00 +39°C° 0 mm 3 mps 740 mmHg 37%
    12:00 +40°C° 0 mm 2 mps 739 mmHg 32%
    13:00 +40°C° 0 mm 1 mps 739 mmHg 30%
    14:00 +41°C° 0 mm 1 mps 738 mmHg 29%
    15:00 +38°C° 0 mm 0 mps 738 mmHg 27%
    16:00 +41°C° 0 mm 1 mps 738 mmHg 28%
    17:00 +40°C° 0 mm 1 mps 738 mmHg 29%
    18:00 +40°C° 0 mm 1 mps 739 mmHg 30%
    19:00 +39°C° 0 mm 2 mps 739 mmHg 33%
    20:00 +38°C° 0 mm 2 mps 739 mmHg 35%
    21:00 +37°C° 0 mm 2 mps 740 mmHg 37%
    22:00 +37°C° 0 mm 3 mps 739 mmHg 41%
    23:00 +36°C° 0 mm 3 mps 739 mmHg 44%
    Show more